Time,TemperatureF,DewpointF,PressureIn,WindDirection,WindDirectionDegrees,WindSpeedMPH,WindSpeedGustMPH,Humidity,HourlyPrecipIn,Conditions,Clouds,dailyrainin,SoftwareType,DateUTC
2013-07-01 00:01:00,74.5,74.5,29.89,South,176,0.0,19.1,100,26.60,,---,0.00,VWS V12.08,2013-07-01 04:01:00,
2013-07-01 00:06:00,46.6,38.0,29.71,West,276,17.2,18.0,72,0.00,,---,0.00,VWS V12.08,2013-07-01 04:06:00,
2013-07-01 00:11:00,46.6,38.0,29.71,West,276,17.2,18.0,72,0.00,,---,0.00,VWS V12.08,2013-07-01 04:11:00,
2013-07-01 00:16:00,46.6,38.0,29.71,West,276,17.2,18.0,72,0.00,,---,0.00,VWS V12.08,2013-07-01 04:16:00,
2013-07-01 00:21:00,46.6,38.0,29.71,West,276,17.2,18.0,72,0.00,,---,0.00,VWS V12.08,2013-07-01 04:21:00,
2013-07-01 00:26:00,46.6,38.0,29.71,West,276,17.2,18.0,72,0.00,,---,0.00,VWS V12.08,2013-07-01 04:26:00,
2013-07-01 00:31:00,75.0,74.9,29.89,ESE,107,0.0,19.1,100,26.60,,---,0.00,VWS V12.08,2013-07-01 04:31:00,
2013-07-01 00:36:00,75.1,75.0,29.89,SE,124,5.0,19.1,100,26.60,,---,0.00,VWS V12.08,2013-07-01 04:36:00,
2013-07-01 00:41:00,46.6,38.0,29.71,West,276,17.2,18.0,72,0.00,,---,0.00,VWS V12.08,2013-07-01 04:41:00,
2013-07-01 00:46:00,74.9,74.8,29.89,South,187,5.0,19.1,100,26.60,,---,0.00,VWS V12.08,2013-07-01 04:46:00,
2013-07-01 00:51:00,74.8,74.8,29.89,ESE,107,0.0,19.1,100,26.60,,---,0.00,VWS V12.08,2013-07-01 04:51:00,
2013-07-01 00:56:00,75.0,74.9,29.89,SSE,152,3.4,19.1,100,26.60,,---,0.00,VWS V12.08,2013-07-01 04:56:00,
2013-07-01 01:01:00,74.9,74.8,29.89,South,173,0.0,19.1,100,26.60,,---,0.00,VWS V12.08,2013-07-01 05:01:00,
2013-07-01 01:06:00,75.0,74.9,29.89,South,174,0.0,19.1,100,26.60,,---,0.00,VWS V12.08,2013-07-01 05:06:00,
2013-07-01 01:11:00,75.0,75.0,29.90,East,96,0.0,19.1,100,26.60,,---,0.00,VWS V12.08,2013-07-01 05:11:00,
2013-07-01 01:16:00,74.9,74.9,29.90,East,90,0.0,19.1,100,26.60,,---,0.00,VWS V12.08,2013-07-01 05:16:00,
2013-07-01 01:21:00,75.1,75.1,29.89,ESE,111,0.0,19.1,100,26.60,,---,0.00,VWS V12.08,2013-07-01 05:21:00,
2013-07-01 01:26:00,75.1,75.1,29.89,ESE,111,0.0,19.1,100,26.60,,---,0.00,VWS V12.08,2013-07-01 05:26:00,
2013-07-01 01:31:00,75.1,75.1,29.89,SSE,152,0.0,19.1,100,26.60,,---,0.00,VWS V12.08,2013-07-01 05:31:00,
2013-07-01 01:36:00,46.6,38.0,29.71,West,276,17.2,18.0,72,0.00,,---,0.00,VWS V12.08,2013-07-01 05:36:00,
2013-07-01 01:41:00,75.1,75.1,29.90,East,87,0.0,19.1,100,26.60,,---,0.00,VWS V12.08,2013-07-01 05:41:00,
2013-07-01 01:46:00,75.0,74.9,29.89,South,172,0.0,19.1,100,26.60,,---,0.00,VWS V12.08,2013-07-01 05:46:00,
2013-07-01 01:51:00,75.0,74.9,29.89,SE,135,4.6,19.1,100,26.60,,---,0.00,VWS V12.08,2013-07-01 05:51:00,
2013-07-01 01:56:00,75.1,75.0,29.89,ESE,112,2.6,19.1,100,26.60,,---,0.00,VWS V12.08,2013-07-01 05:56:00,
2013-07-01 02:01:00,75.1,75.0,29.89,SE,139,4.7,19.1,100,26.60,,---,0.00,VWS V12.08,2013-07-01 06:01:00,
2013-07-01 02:06:00,75.2,75.1,29.89,SE,132,3.4,19.1,100,26.60,,---,0.00,VWS V12.08,2013-07-01 06:06:00,
2013-07-01 02:11:00,75.1,75.0,29.89,ESE,112,0.0,19.1,100,26.60,,---,0.00,VWS V12.08,2013-07-01 06:11:00,
2013-07-01 02:16:00,74.9,74.8,29.89,ESE,112,3.1,19.1,100,26.60,,---,0.00,VWS V12.08,2013-07-01 06:16:00,
2013-07-01 02:21:00,75.0,74.8,29.89,SE,124,0.0,19.1,99,26.60,,---,0.00,VWS V12.08,2013-07-01 06:21:00,
2013-07-01 02:26:00,75.0,74.8,29.89,SE,134,7.0,19.1,99,26.60,,---,0.00,VWS V12.08,2013-07-01 06:26:00,
2013-07-01 02:31:00,74.9,74.7,29.89,SE,132,3.3,19.1,99,26.60,,---,0.00,VWS V12.08,2013-07-01 06:31:00,
2013-07-01 02:36:00,44.5,38.0,29.74,WNW,301,10.5,17.8,78,0.00,,---,0.00,VWS V12.08,2013-07-01 06:36:00,
2013-07-01 02:41:00,44.5,38.8,29.74,WSW,239,7.9,14.0,80,0.00,,---,0.00,VWS V12.08,2013-07-01 06:41:00,
2013-07-01 02:46:00,45.8,38.0,29.72,NW,326,12.3,22.6,74,0.00,,---,0.00,VWS V12.08,2013-07-01 06:46:00,
2013-07-01 02:51:00,74.8,74.7,29.89,ESE,122,3.4,19.1,100,26.60,,---,0.00,VWS V12.08,2013-07-01 06:51:00,
2013-07-01 02:56:00,74.8,74.7,29.89,East,101,0.0,19.1,100,26.60,,---,0.00,VWS V12.08,2013-07-01 06:56:00,
2013-07-01 03:01:00,74.7,74.6,29.89,ENE,63,0.0,19.1,100,26.60,,---,0.00,VWS V12.08,2013-07-01 07:01:00,
2013-07-01 03:06:00,74.7,74.6,29.89,ESE,107,0.0,19.1,100,26.60,,---,0.00,VWS V12.08,2013-07-01 07:06:00,
2013-07-01 03:11:00,74.9,74.8,29.88,East,84,0.0,19.1,100,26.60,,---,0.00,VWS V12.08,2013-07-01 07:11:00,
2013-07-01 03:16:00,74.7,74.6,29.89,SE,134,4.4,19.1,100,26.60,,---,0.00,VWS V12.08,2013-07-01 07:16:00,
2013-07-01 03:21:00,74.7,74.6,29.88,ESE,121,5.0,19.1,100,26.60,,---,0.00,VWS V12.08,2013-07-01 07:21:00,
2013-07-01 03:26:00,74.6,74.5,29.88,SE,128,3.4,19.1,100,26.60,,---,0.00,VWS V12.08,2013-07-01 07:26:00,
2013-07-01 03:31:00,74.6,74.5,29.88,South,172,0.0,19.1,100,26.60,,---,0.00,VWS V12.08,2013-07-01 07:31:00,
2013-07-01 03:36:00,74.6,74.5,29.88,SSE,156,0.0,19.1,100,26.60,,---,0.00,VWS V12.08,2013-07-01 07:36:00,
2013-07-01 03:41:00,37.7,35.5,29.32,West,280,6.8,13.3,92,1.03,,---,1.03,VWS V12.08,2013-07-01 07:41:00,
2013-07-01 03:46:00,74.6,74.4,29.88,SSE,160,5.4,19.1,99,26.60,,---,0.00,VWS V12.08,2013-07-01 07:46:00,
2013-07-01 03:51:00,74.6,74.4,29.89,SSE,160,5.3,19.1,99,26.60,,---,0.00,VWS V12.08,2013-07-01 07:51:00,
2013-07-01 03:56:00,74.6,74.4,29.88,SE,143,7.0,19.1,99,26.60,,---,0.00,VWS V12.08,2013-07-01 07:56:00,
2013-07-01 04:01:00,74.6,74.4,29.88,South,179,5.0,19.1,99,26.60,,---,0.00,VWS V12.08,2013-07-01 08:01:00,
2013-07-01 04:06:00,74.5,74.4,29.88,SSW,208,0.0,19.1,100,26.60,,---,0.00,VWS V12.08,2013-07-01 08:06:00,
2013-07-01 04:11:00,74.4,74.3,29.88,South,180,0.0,19.1,100,26.60,,---,0.00,VWS V12.08,2013-07-01 08:11:00,
2013-07-01 04:16:00,74.2,74.1,29.88,SW,218,0.0,19.1,100,26.60,,---,0.00,VWS V12.08,2013-07-01 08:16:00,
2013-07-01 04:21:00,74.4,74.3,29.88,South,191,5.8,19.1,100,26.60,,---,0.00,VWS V12.08,2013-07-01 08:21:00,
2013-07-01 04:26:00,74.4,74.3,29.89,South,170,5.9,19.1,100,26.60,,---,0.00,VWS V12.08,2013-07-01 08:26:00,
2013-07-01 04:31:00,74.5,74.4,29.89,South,174,0.0,19.1,100,26.60,,---,0.00,VWS V12.08,2013-07-01 08:31:00,
2013-07-01 04:36:00,74.2,74.1,29.89,SSE,150,0.0,19.1,100,26.60,,---,0.00,VWS V12.08,2013-07-01 08:36:00,
2013-07-01 04:41:00,74.4,74.3,29.89,SSE,159,5.5,19.1,100,26.60,,---,0.00,VWS V12.08,2013-07-01 08:41:00,
2013-07-01 04:46:00,74.6,74.5,29.89,ESE,121,0.0,19.1,100,26.60,,---,0.00,VWS V12.08,2013-07-01 08:46:00,
2013-07-01 04:51:00,74.5,74.4,29.89,SE,139,3.0,19.1,100,26.60,,---,0.00,VWS V12.08,2013-07-01 08:51:00,
2013-07-01 04:56:00,74.4,74.3,29.89,SE,143,5.3,19.1,100,26.60,,---,0.00,VWS V12.08,2013-07-01 08:56:00,
2013-07-01 05:01:00,74.5,74.4,29.89,SSW,207,0.0,19.1,100,26.60,,---,0.00,VWS V12.08,2013-07-01 09:01:00,
2013-07-01 05:06:00,74.4,74.3,29.89,ENE,75,0.0,19.1,100,26.60,,---,0.00,VWS V12.08,2013-07-01 09:06:00,
2013-07-01 05:11:00,74.5,74.4,29.89,ENE,75,0.0,19.1,100,26.60,,---,0.00,VWS V12.08,2013-07-01 09:11:00,
2013-07-01 05:16:00,74.5,74.4,29.90,ENE,75,0.0,19.1,100,26.60,,---,0.00,VWS V12.08,2013-07-01 09:16:00,
2013-07-01 05:21:00,74.6,74.6,29.90,ESE,120,0.0,19.1,100,26.60,,---,0.00,VWS V12.08,2013-07-01 09:21:00,
2013-07-01 05:26:00,74.6,74.6,29.90,ESE,118,0.0,19.1,100,26.60,,---,0.00,VWS V12.08,2013-07-01 09:26:00,
2013-07-01 05:31:00,46.6,38.0,29.71,West,276,17.2,18.0,72,0.00,,---,0.00,VWS V12.08,2013-07-01 09:31:00,
2013-07-01 05:36:00,74.6,74.6,29.90,SSE,156,0.0,19.1,100,26.60,,---,0.00,VWS V12.08,2013-07-01 09:36:00,
2013-07-01 05:41:00,74.6,74.6,29.90,SE,135,3.4,19.1,100,26.60,,---,0.00,VWS V12.08,2013-07-01 09:41:00,
2013-07-01 05:46:00,74.7,74.7,29.91,ESE,110,0.0,19.1,100,26.60,,---,0.00,VWS V12.08,2013-07-01 09:46:00,
2013-07-01 05:51:00,74.6,74.6,29.91,SE,142,3.4,19.1,100,26.60,,---,0.00,VWS V12.08,2013-07-01 09:51:00,
2013-07-01 05:56:00,74.6,74.6,29.91,SE,135,6.0,19.1,100,26.60,,---,0.00,VWS V12.08,2013-07-01 09:56:00,
2013-07-01 06:01:00,74.7,74.7,29.91,ESE,117,0.0,19.1,100,26.60,,---,0.00,VWS V12.08,2013-07-01 10:01:00,
2013-07-01 06:06:00,74.6,74.6,29.91,SE,125,0.0,19.1,100,26.60,,---,0.00,VWS V12.08,2013-07-01 10:06:00,
2013-07-01 06:11:00,74.6,74.6,29.91,SE,141,5.6,19.1,100,26.60,,---,0.00,VWS V12.08,2013-07-01 10:11:00,
2013-07-01 06:16:00,74.5,74.5,29.91,ESE,108,5.9,19.1,100,26.60,,---,0.00,VWS V12.08,2013-07-01 10:16:00,
2013-07-01 06:21:00,74.7,74.7,29.91,ENE,65,3.4,19.1,100,26.60,,---,0.00,VWS V12.08,2013-07-01 10:21:00,
2013-07-01 06:26:00,74.6,74.6,29.91,SE,132,4.3,19.1,100,26.60,,---,0.00,VWS V12.08,2013-07-01 10:26:00,
2013-07-01 06:31:00,46.6,38.0,29.71,West,276,17.2,18.0,72,0.00,,---,0.00,VWS V12.08,2013-07-01 10:31:00,
2013-07-01 06:36:00,74.6,74.6,29.92,ESE,121,4.7,19.1,100,26.60,,---,0.00,VWS V12.08,2013-07-01 10:36:00,
2013-07-01 06:41:00,74.6,74.6,29.91,East,87,0.0,19.1,100,26.60,,---,0.00,VWS V12.08,2013-07-01 10:41:00,
2013-07-01 06:46:00,74.6,74.6,29.91,East,98,4.3,19.1,100,26.60,,---,0.00,VWS V12.08,2013-07-01 10:46:00,
2013-07-01 06:51:00,74.6,74.6,29.92,SE,136,0.0,19.1,100,26.60,,---,0.00,VWS V12.08,2013-07-01 10:51:00,
2013-07-01 06:56:00,74.6,74.6,29.92,East,83,0.0,19.1,100,26.60,,---,0.00,VWS V12.08,2013-07-01 10:56:00,
2013-07-01 07:01:00,74.7,74.6,29.91,SE,136,6.0,19.1,100,26.60,,---,0.00,VWS V12.08,2013-07-01 11:01:00,
2013-07-01 07:06:00,74.9,74.8,29.91,East,90,3.2,19.1,100,26.60,,---,0.00,VWS V12.08,2013-07-01 11:06:00,
2013-07-01 07:11:00,74.9,74.8,29.91,SE,143,4.3,19.1,100,26.60,,---,0.00,VWS V12.08,2013-07-01 11:11:00,
2013-07-01 07:16:00,74.9,74.8,29.92,ESE,110,4.2,19.1,100,26.60,,---,0.00,VWS V12.08,2013-07-01 11:16:00,
2013-07-01 07:21:00,75.0,74.9,29.91,ESE,122,0.0,19.1,100,26.60,,---,0.00,VWS V12.08,2013-07-01 11:21:00,
2013-07-01 07:26:00,75.1,75.0,29.92,ESE,110,3.2,19.1,100,26.60,,---,0.00,VWS V12.08,2013-07-01 11:26:00,
2013-07-01 07:31:00,75.2,75.1,29.92,SE,138,0.0,19.1,100,26.60,,---,0.00,VWS V12.08,2013-07-01 11:31:00,
2013-07-01 07:36:00,75.2,75.1,29.92,ESE,110,3.0,19.1,100,26.60,,---,0.00,VWS V12.08,2013-07-01 11:36:00,
2013-07-01 07:41:00,75.4,75.3,29.92,SSE,165,3.4,19.1,100,26.60,,---,0.00,VWS V12.08,2013-07-01 11:41:00,
2013-07-01 07:46:00,75.4,75.3,29.92,ESE,114,6.2,19.1,100,26.60,,---,0.00,VWS V12.08,2013-07-01 11:46:00,
2013-07-01 07:51:00,75.6,75.4,29.92,East,89,5.4,19.1,99,26.60,,---,0.00,VWS V12.08,2013-07-01 11:51:00,
2013-07-01 07:56:00,75.5,75.4,29.92,SE,125,0.0,19.1,100,26.60,,---,0.00,VWS V12.08,2013-07-01 11:56:00,
2013-07-01 08:01:00,75.6,75.4,29.92,SE,146,5.1,19.1,99,26.60,,---,0.00,VWS V12.08,2013-07-01 12:01:00,
2013-07-01 08:06:00,75.8,75.6,29.93,ESE,112,5.1,19.1,99,26.60,,---,0.00,VWS V12.08,2013-07-01 12:06:00,
2013-07-01 08:11:00,75.9,75.7,29.93,ESE,108,3.3,19.1,99,26.60,,---,0.00,VWS V12.08,2013-07-01 12:11:00,
2013-07-01 08:16:00,76.0,75.7,29.92,SSE,155,5.0,19.1,99,26.60,,---,0.00,VWS V12.08,2013-07-01 12:16:00,
2013-07-01 08:21:00,76.0,75.7,29.93,SE,128,4.3,19.1,99,26.60,,---,0.00,VWS V12.08,2013-07-01 12:21:00,
2013-07-01 08:26:00,76.2,75.8,29.93,ESE,120,3.0,19.1,99,26.60,,---,0.00,VWS V12.08,2013-07-01 12:26:00,
2013-07-01 08:31:00,32.5,32.5,29.58,WNW,300,9.3,17.1,100,0.00,,---,0.00,VWS V12.08,2013-07-01 12:31:00,
2013-07-01 08:36:00,76.4,76.0,29.92,SSE,155,4.8,19.1,99,26.60,,---,0.00,VWS V12.08,2013-07-01 12:36:00,
2013-07-01 08:41:00,76.4,75.8,29.92,East,96,5.0,19.1,98,26.60,,---,0.00,VWS V12.08,2013-07-01 12:41:00,
2013-07-01 08:46:00,76.8,76.1,29.92,East,87,6.3,19.1,98,26.60,,---,0.00,VWS V12.08,2013-07-01 12:46:00,
2013-07-01 08:51:00,76.9,76.1,29.92,SE,132,7.6,19.1,98,26.60,,---,0.00,VWS V12.08,2013-07-01 12:51:00,
2013-07-01 08:56:00,77.1,76.2,29.92,SSE,156,1.6,19.1,97,26.60,,---,0.00,VWS V12.08,2013-07-01 12:56:00,
2013-07-01 09:01:00,77.3,76.2,29.92,SE,131,8.2,19.1,96,26.60,,---,0.00,VWS V12.08,2013-07-01 13:01:00,
2013-07-01 09:06:00,77.3,76.1,29.92,SE,127,5.7,19.1,96,26.60,,---,0.00,VWS V12.08,2013-07-01 13:06:00,
2013-07-01 09:11:00,77.5,76.2,29.92,South,172,5.0,19.1,96,26.60,,---,0.00,VWS V12.08,2013-07-01 13:11:00,
2013-07-01 09:16:00,77.3,76.0,29.92,ESE,111,7.2,19.1,96,26.60,,---,0.00,VWS V12.08,2013-07-01 13:16:00,
2013-07-01 09:21:00,77.3,76.0,29.91,ESE,114,6.5,19.1,96,26.60,,---,0.00,VWS V12.08,2013-07-01 13:21:00,
2013-07-01 09:26:00,77.3,76.1,29.91,ESE,122,9.6,19.1,96,26.60,,---,0.00,VWS V12.08,2013-07-01 13:26:00,
2013-07-01 09:31:00,77.1,75.8,29.90,ENE,65,12.1,19.1,96,26.60,,---,0.00,VWS V12.08,2013-07-01 13:31:00,
2013-07-01 09:36:00,77.1,75.9,29.89,ESE,112,11.4,19.1,96,26.60,,---,0.02,VWS V12.08,2013-07-01 13:36:00,
2013-07-01 09:41:00,76.9,76.0,29.91,South,190,8.7,19.1,97,26.90,,---,0.35,VWS V12.08,2013-07-01 13:41:00,
2013-07-01 09:46:00,76.3,75.7,29.92,SSW,193,12.1,19.9,98,27.11,,---,0.52,VWS V12.08,2013-07-01 13:46:00,
2013-07-01 09:51:00,75.3,75.2,29.93,SW,218,11.1,25.0,100,27.18,,---,0.60,VWS V12.08,2013-07-01 13:51:00,
2013-07-01 09:56:00,74.7,74.7,29.94,South,180,13.0,25.0,100,27.22,,---,0.63,VWS V12.08,2013-07-01 13:56:00,
2013-07-01 10:01:00,36.0,26.8,29.93,West,263,2.1,12.0,69,0.00,,---,0.00,VWS V12.08,2013-07-01 14:01:00,
2013-07-01 10:06:00,74.2,74.2,29.94,SSW,205,8.2,25.0,100,27.34,,---,0.76,VWS V12.08,2013-07-01 14:06:00,
2013-07-01 10:11:00,74.0,74.0,29.94,WNW,292,4.6,0.0,100,27.39,,---,0.80,VWS V12.08,2013-07-01 14:11:00,
2013-07-01 10:16:00,36.3,26.9,29.93,WNW,297,4.7,21.4,68,0.00,,---,0.00,VWS V12.08,2013-07-01 14:16:00,
2013-07-01 10:21:00,73.7,73.7,29.95,WSW,249,0.0,25.0,100,27.44,,---,0.84,VWS V12.08,2013-07-01 14:21:00,
2013-07-01 10:26:00,73.7,73.7,29.95,WSW,240,0.0,0.0,100,27.44,,---,0.85,VWS V12.08,2013-07-01 14:26:00,
2013-07-01 10:31:00,73.8,73.8,29.95,SW,215,0.0,25.0,100,27.47,,---,0.87,VWS V12.08,2013-07-01 14:31:00,
2013-07-01 10:36:00,33.0,31.3,30.22,NNE,30,0.0,20.3,94,0.18,,---,0.06,VWS V12.08,2013-07-01 14:36:00,
2013-07-01 10:41:00,73.7,73.7,29.95,SSW,194,0.0,25.0,100,27.52,,---,0.92,VWS V12.08,2013-07-01 14:41:00,
2013-07-01 10:46:00,36.0,26.8,29.93,West,263,2.1,12.0,69,0.00,,---,0.00,VWS V12.08,2013-07-01 14:46:00,
2013-07-01 10:51:00,73.5,73.5,29.96,WSW,255,0.0,25.0,100,27.60,,---,1.00,VWS V12.08,2013-07-01 14:51:00,
2013-07-01 10:56:00,73.5,73.5,29.96,WSW,255,0.0,25.0,100,27.64,,---,1.04,VWS V12.08,2013-07-01 14:56:00,
2013-07-01 11:01:00,38.5,28.8,29.82,West,263,5.8,36.2,68,1.03,,---,0.00,VWS V12.08,2013-07-01 15:01:00,
2013-07-01 11:06:00,73.3,73.3,29.96,WSW,255,0.0,0.0,100,27.66,,---,1.06,VWS V12.08,2013-07-01 15:06:00,
2013-07-01 11:11:00,73.3,73.3,29.95,WSW,255,0.0,0.0,100,27.68,,---,1.08,VWS V12.08,2013-07-01 15:11:00,
2013-07-01 11:16:00,73.3,73.3,29.95,WSW,255,0.0,25.0,100,27.70,,---,1.10,VWS V12.08,2013-07-01 15:16:00,
2013-07-01 11:21:00,73.2,73.2,29.95,WSW,255,0.0,25.0,100,27.70,,---,1.10,VWS V12.08,2013-07-01 15:21:00,
2013-07-01 11:26:00,73.3,73.3,29.95,WSW,255,0.0,0.0,100,27.72,,---,1.12,VWS V12.08,2013-07-01 15:26:00,
2013-07-01 11:31:00,73.5,73.5,29.95,WSW,255,0.0,0.0,100,27.72,,---,1.12,VWS V12.08,2013-07-01 15:31:00,
2013-07-01 11:36:00,48.8,48.8,29.73,East,80,10.4,19.7,100,0.09,,---,0.09,VWS V12.08,2013-07-01 15:36:00,
2013-07-01 11:40:00,32.3,30.8,30.23,NNE,13,4.3,6.3,94,0.06,,---,0.06,VWS V12.08,2013-07-01 15:40:00,
2013-07-01 11:45:00,36.0,26.8,29.93,West,263,2.1,12.0,69,0.00,,---,0.00,VWS V12.08,2013-07-01 15:45:00,
2013-07-01 11:50:00,74.6,74.6,29.95,ENE,59,0.0,0.0,100,27.73,,---,1.13,VWS V12.08,2013-07-01 15:50:00,
2013-07-01 11:55:00,36.0,26.8,29.93,West,263,2.1,12.0,69,0.00,,---,0.00,VWS V12.08,2013-07-01 15:55:00,
2013-07-01 12:00:00,40.9,40.9,30.10,South,173,0.0,0.0,100,0.00,,---,0.00,VWS V12.08,2013-07-01 16:00:00,
2013-07-01 12:05:00,45.4,40.4,30.17,ENE,68,0.0,0.0,82,0.00,,---,0.00,VWS V12.08,2013-07-01 16:05:00,
2013-07-01 12:10:00,76.0,76.0,29.96,ESE,121,0.0,0.0,100,27.73,,---,1.13,VWS V12.08,2013-07-01 16:10:00,
2013-07-01 12:15:00,45.4,40.4,30.17,ENE,68,0.0,0.0,82,0.00,,---,0.00,VWS V12.08,2013-07-01 16:15:00,
2013-07-01 12:20:00,33.4,31.8,30.30,NE,38,0.0,0.0,94,0.00,,---,0.00,VWS V12.08,2013-07-01 16:20:00,
2013-07-01 12:25:00,45.0,45.0,29.97,North,359,6.3,15.2,100,0.53,,---,0.27,VWS V12.08,2013-07-01 16:25:00,
2013-07-01 12:30:00,58.8,58.8,30.14,East,90,0.0,0.0,100,0.00,,---,0.00,VWS V12.08,2013-07-01 16:30:00,
2013-07-01 12:35:00,40.7,36.0,30.19,NNW,329,5.5,7.7,83,0.05,,---,0.05,VWS V12.08,2013-07-01 16:35:00,
2013-07-01 12:40:00,76.5,76.5,29.96,ESE,110,0.0,25.0,100,27.73,,---,1.13,VWS V12.08,2013-07-01 16:40:00,
2013-07-01 12:45:00,49.9,49.9,30.08,SSW,207,6.3,11.3,100,0.03,,---,0.03,VWS V12.08,2013-07-01 16:45:00,
2013-07-01 12:50:00,39.1,36.7,30.42,NNE,21,5.8,15.4,91,0.00,,---,0.00,VWS V12.08,2013-07-01 16:50:00,
2013-07-01 12:55:00,77.2,77.1,29.95,ESE,121,5.2,0.0,100,27.73,,---,1.13,VWS V12.08,2013-07-01 16:55:00,
2013-07-01 13:01:00,42.7,37.6,29.75,NW,307,9.3,16.6,82,0.00,,---,0.00,VWS V12.08,2013-07-01 17:01:00,
2013-07-01 13:06:00,77.3,76.9,29.96,SE,128,6.7,25.0,99,27.73,,---,1.13,VWS V12.08,2013-07-01 17:06:00,
2013-07-01 13:11:00,37.9,30.8,29.91,North,354,5.5,10.5,75,0.40,,---,0.40,VWS V12.08,2013-07-01 17:11:00,
2013-07-01 13:16:00,77.4,76.7,29.96,SSE,166,0.0,25.0,98,27.73,,---,1.13,VWS V12.08,2013-07-01 17:16:00,
2013-07-01 13:21:00,77.3,76.6,29.96,SSW,194,5.5,25.0,98,27.73,,---,1.13,VWS V12.08,2013-07-01 17:21:00,
2013-07-01 13:26:00,77.3,76.6,29.96,SE,145,4.4,25.0,98,27.73,,---,1.13,VWS V12.08,2013-07-01 17:26:00,
2013-07-01 13:31:00,77.4,76.7,29.96,SE,141,5.2,25.0,98,27.73,,---,1.13,VWS V12.08,2013-07-01 17:31:00,
2013-07-01 13:36:00,77.4,76.8,29.96,NE,51,3.5,25.0,98,27.73,,---,1.13,VWS V12.08,2013-07-01 17:36:00,
2013-07-01 13:41:00,77.5,76.9,29.96,ESE,118,6.6,25.0,98,27.73,,---,1.13,VWS V12.08,2013-07-01 17:41:00,
2013-07-01 13:46:00,77.3,76.7,29.96,East,90,4.7,25.0,98,27.73,,---,1.13,VWS V12.08,2013-07-01 17:46:00,
2013-07-01 13:51:00,37.4,31.2,30.43,WNW,302,0.0,7.8,78,0.00,,---,0.00,VWS V12.08,2013-07-01 17:51:00,
2013-07-01 13:56:00,77.0,76.6,29.96,SSE,148,4.5,25.0,99,27.73,,---,1.14,VWS V12.08,2013-07-01 17:56:00,
2013-07-01 14:01:00,54.0,54.0,29.58,WNW,285,19.9,23.6,100,0.03,,---,0.03,VWS V12.08,2013-07-01 18:01:00,
2013-07-01 14:06:00,76.6,76.4,29.96,ESE,117,0.0,25.0,99,27.75,,---,1.15,VWS V12.08,2013-07-01 18:06:00,
2013-07-01 14:11:00,76.4,76.4,29.96,East,96,3.4,25.0,100,27.76,,---,1.16,VWS V12.08,2013-07-01 18:11:00,
2013-07-01 14:16:00,76.0,76.0,29.96,ESE,121,8.0,25.0,100,27.78,,---,1.18,VWS V12.08,2013-07-01 18:16:00,
2013-07-01 14:21:00,76.0,76.0,29.96,SE,134,0.0,25.0,100,27.80,,---,1.20,VWS V12.08,2013-07-01 18:21:00,
2013-07-01 14:26:00,76.0,76.0,29.96,SE,146,3.3,25.0,100,27.82,,---,1.22,VWS V12.08,2013-07-01 18:26:00,
2013-07-01 14:31:00,75.7,75.7,29.96,SE,145,3.3,25.0,100,27.83,,---,1.23,VWS V12.08,2013-07-01 18:31:00,
2013-07-01 14:36:00,75.6,75.6,29.96,SE,135,0.0,0.0,100,27.84,,---,1.24,VWS V12.08,2013-07-01 18:36:00,
2013-07-01 14:41:00,75.4,75.4,29.96,South,188,4.4,25.0,100,27.85,,---,1.26,VWS V12.08,2013-07-01 18:41:00,
2013-07-01 14:46:00,32.5,32.5,29.58,WNW,300,9.3,17.1,100,0.00,,---,0.00,VWS V12.08,2013-07-01 18:46:00,
2013-07-01 14:51:00,75.2,75.2,29.96,East,97,0.0,0.0,100,27.86,,---,1.27,VWS V12.08,2013-07-01 18:51:00,
2013-07-01 14:56:00,75.5,75.5,29.97,SSE,160,6.8,0.0,100,27.87,,---,1.27,VWS V12.08,2013-07-01 18:56:00,
2013-07-01 15:01:00,75.2,75.2,29.96,East,94,0.0,25.0,100,27.87,,---,1.27,VWS V12.08,2013-07-01 19:01:00,
2013-07-01 15:06:00,28.5,22.4,30.16,WSW,250,3.4,30.4,78,0.03,,---,0.03,VWS V12.08,2013-07-01 19:06:00,
2013-07-01 15:11:00,28.5,22.4,30.16,WSW,250,3.4,30.4,78,0.03,,---,0.03,VWS V12.08,2013-07-01 19:11:00,
2013-07-01 15:16:00,75.5,75.5,29.95,ESE,112,8.3,25.0,100,27.87,,---,1.27,VWS V12.08,2013-07-01 19:16:00,
2013-07-01 15:21:00,75.6,75.6,29.95,SE,128,3.1,25.0,100,27.87,,---,1.27,VWS V12.08,2013-07-01 19:21:00,
2013-07-01 15:26:00,75.6,75.6,29.95,SE,129,5.0,25.0,100,27.87,,---,1.27,VWS V12.08,2013-07-01 19:26:00,
2013-07-01 15:31:00,75.9,75.9,29.95,East,84,8.9,0.0,100,27.87,,---,1.27,VWS V12.08,2013-07-01 19:31:00,
2013-07-01 15:36:00,76.0,76.0,29.95,East,98,2.9,25.0,100,27.87,,---,1.28,VWS V12.08,2013-07-01 19:36:00,
2013-07-01 15:41:00,76.1,76.1,29.95,SSE,153,7.0,0.0,100,27.88,,---,1.28,VWS V12.08,2013-07-01 19:41:00,
2013-07-01 15:46:00,28.2,22.4,30.17,SW,225,3.5,7.8,78,0.03,,---,0.03,VWS V12.08,2013-07-01 19:46:00,
2013-07-01 15:51:00,43.6,43.6,29.87,ENE,66,4.3,11.7,100,0.65,,---,0.65,VWS V12.08,2013-07-01 19:51:00,
2013-07-01 15:56:00,35.2,35.2,29.90,North,350,3.3,8.0,100,0.12,,---,0.12,VWS V12.08,2013-07-01 19:56:00,
2013-07-01 16:01:00,34.2,30.1,30.25,South,186,0.0,17.3,85,0.01,,---,0.00,VWS V12.08,2013-07-01 20:01:00,
2013-07-01 16:06:00,75.9,75.9,29.95,SE,135,9.8,25.0,100,27.88,,---,1.28,VWS V12.08,2013-07-01 20:06:00,
2013-07-01 16:11:00,45.0,45.0,29.59,NNE,17,6.0,16.0,100,1.01,,---,0.35,VWS V12.08,2013-07-01 20:11:00,
2013-07-01 16:16:00,32.3,30.8,30.23,NNE,13,4.3,6.3,94,0.06,,---,0.06,VWS V12.08,2013-07-01 20:16:00,
2013-07-01 16:21:00,75.6,75.6,29.95,SE,128,8.0,0.0,100,27.88,,---,1.28,VWS V12.08,2013-07-01 20:21:00,
2013-07-01 16:26:00,75.5,75.5,29.95,East,98,5.2,25.0,100,27.88,,---,1.28,VWS V12.08,2013-07-01 20:26:00,
2013-07-01 16:31:00,75.3,75.3,29.95,SE,128,4.8,25.0,100,27.88,,---,1.28,VWS V12.08,2013-07-01 20:31:00,
2013-07-01 16:36:00,33.4,31.8,30.30,NE,38,0.0,0.0,94,0.00,,---,0.00,VWS V12.08,2013-07-01 20:36:00,
2013-07-01 16:41:00,75.2,75.2,29.95,ESE,105,0.0,0.0,100,27.88,,---,1.28,VWS V12.08,2013-07-01 20:41:00,
2013-07-01 16:46:00,75.1,75.1,29.95,ESE,121,4.7,25.0,100,27.88,,---,1.28,VWS V12.08,2013-07-01 20:46:00,
2013-07-01 16:51:00,50.1,50.1,29.98,SSW,193,0.0,11.4,100,0.53,,---,0.21,VWS V12.08,2013-07-01 20:51:00,
2013-07-01 16:56:00,36.0,26.8,29.93,West,263,2.1,12.0,69,0.00,,---,0.00,VWS V12.08,2013-07-01 20:56:00,
2013-07-01 17:01:00,75.2,75.2,29.95,SSE,156,9.1,0.0,100,27.88,,---,1.28,VWS V12.08,2013-07-01 21:01:00,
2013-07-01 17:06:00,75.5,75.5,29.95,SSE,148,3.3,0.0,100,27.88,,---,1.28,VWS V12.08,2013-07-01 21:06:00,
2013-07-01 17:11:00,37.6,35.2,29.32,South,180,0.0,45.1,91,1.13,,---,1.03,VWS V12.08,2013-07-01 21:11:00,
2013-07-01 17:16:00,42.3,42.3,29.99,NNW,346,0.0,0.0,100,0.27,,---,0.27,VWS V12.08,2013-07-01 21:16:00,
2013-07-01 17:20:00,39.3,39.3,29.46,North,1,10.8,31.8,100,1.39,,---,1.33,VWS V12.08,2013-07-01 21:20:00,
2013-07-01 17:25:00,35.0,35.0,29.90,NNW,332,0.0,12.4,100,0.10,,---,0.10,VWS V12.08,2013-07-01 21:25:00,
2013-07-01 17:30:00,35.5,27.2,30.22,West,277,11.2,30.0,71,0.14,,---,0.01,VWS V12.08,2013-07-01 21:30:00,
2013-07-01 17:35:00,76.0,76.0,29.95,SSE,152,9.2,0.0,100,27.88,,---,1.28,VWS V12.08,2013-07-01 21:35:00,
2013-07-01 17:40:00,52.8,52.8,29.92,SSE,165,5.8,8.0,100,0.13,,---,0.13,VWS V12.08,2013-07-01 21:40:00,
2013-07-01 17:45:00,75.9,75.9,29.95,SSE,158,9.1,25.0,100,27.88,,---,1.28,VWS V12.08,2013-07-01 21:45:00,
2013-07-01 17:50:00,45.6,40.4,30.17,ENE,68,0.0,9.5,82,0.00,,---,0.00,VWS V12.08,2013-07-01 21:50:00,
2013-07-01 17:55:00,45.2,45.2,29.57,NNE,13,6.3,9.5,100,0.40,,---,0.39,VWS V12.08,2013-07-01 21:55:00,
2013-07-01 18:00:00,36.6,36.6,30.19,North,4,0.0,12.4,100,0.55,,---,0.55,VWS V12.08,2013-07-01 22:00:00,
2013-07-01 18:05:00,45.2,45.2,29.57,NNE,13,6.3,9.5,100,0.40,,---,0.39,VWS V12.08,2013-07-01 22:05:00,
2013-07-01 18:10:00,36.4,29.6,30.22,WNW,295,0.0,0.0,76,0.00,,---,0.00,VWS V12.08,2013-07-01 22:10:00,
2013-07-01 18:15:00,40.7,40.7,30.39,NNW,328,4.3,6.5,100,0.00,,---,0.00,VWS V12.08,2013-07-01 22:15:00,
2013-07-01 18:20:00,40.9,40.9,30.10,South,173,0.0,0.0,100,0.00,,---,0.00,VWS V12.08,2013-07-01 22:20:00,
2013-07-01 18:25:00,52.4,52.4,29.93,SSE,162,4.3,11.6,100,0.13,,---,0.13,VWS V12.08,2013-07-01 22:25:00,
2013-07-01 18:30:00,36.2,28.8,30.23,WNW,295,0.0,22.9,74,0.00,,---,0.00,VWS V12.08,2013-07-01 22:30:00,
2013-07-01 18:35:00,36.9,28.2,29.94,SSW,212,6.6,17.4,70,0.00,,---,0.00,VWS V12.08,2013-07-01 22:35:00,
2013-07-01 18:40:00,49.6,48.3,29.65,SE,124,5.3,15.3,95,0.00,,---,0.00,VWS V12.08,2013-07-01 22:40:00,
2013-07-01 18:45:00,43.2,39.8,30.11,North,359,5.2,6.1,88,0.00,,---,0.00,VWS V12.08,2013-07-01 22:45:00,
2013-07-01 18:50:00,42.1,33.3,30.20,NNW,343,3.4,5.8,71,0.00,,---,0.00,VWS V12.08,2013-07-01 22:50:00,
2013-07-01 18:55:00,75.5,75.5,29.96,SE,128,5.4,25.0,100,27.88,,---,1.28,VWS V12.08,2013-07-01 22:55:00,
2013-07-01 19:00:00,58.8,58.8,30.14,East,90,0.0,0.0,100,0.00,,---,0.00,VWS V12.08,2013-07-01 23:00:00,
2013-07-01 19:05:00,75.6,75.6,29.97,SE,135,3.1,0.0,100,27.88,,---,1.28,VWS V12.08,2013-07-01 23:05:00,
2013-07-01 19:10:00,37.2,32.8,30.42,NNE,18,3.2,9.1,84,0.00,,---,0.00,VWS V12.08,2013-07-01 23:10:00,
2013-07-01 19:15:00,39.6,38.9,30.20,NW,315,0.0,0.0,97,0.00,,---,0.00,VWS V12.08,2013-07-01 23:15:00,
2013-07-01 19:20:00,38.6,32.4,30.27,North,4,0.0,0.0,78,0.00,,---,0.00,VWS V12.08,2013-07-01 23:20:00,
2013-07-01 19:25:00,37.5,31.1,30.43,NW,316,5.0,24.0,77,0.11,,---,0.00,VWS V12.08,2013-07-01 23:25:00,
2013-07-01 19:30:00,44.5,38.0,29.74,WNW,301,10.5,17.8,78,0.00,,---,0.00,VWS V12.08,2013-07-01 23:30:00,
2013-07-01 19:35:00,74.9,74.9,29.99,ESE,120,3.5,0.0,100,27.88,,---,1.28,VWS V12.08,2013-07-01 23:35:00,
2013-07-01 19:40:00,45.5,43.3,30.39,South,170,0.0,10.6,92,0.00,,---,0.00,VWS V12.08,2013-07-01 23:40:00,
2013-07-01 19:45:00,33.4,26.7,30.17,North,0,0.0,6.5,76,0.00,,---,0.00,VWS V12.08,2013-07-01 23:45:00,
2013-07-01 19:50:00,33.6,26.4,30.16,West,280,0.0,19.6,75,0.00,,---,0.00,VWS V12.08,2013-07-01 23:50:00,
2013-07-01 19:55:00,42.5,37.6,29.96,West,260,5.5,13.0,83,0.00,,---,0.00,VWS V12.08,2013-07-01 23:55:00,
2013-07-01 20:00:00,39.3,32.1,30.12,WNW,297,4.8,10.8,75,0.00,,---,0.00,VWS V12.08,2013-07-02 00:00:00,
2013-07-01 20:05:00,44.7,38.6,29.74,West,266,10.4,15.9,79,0.00,,---,0.00,VWS V12.08,2013-07-02 00:05:00,
2013-07-01 20:10:00,45.7,38.4,29.73,West,277,13.4,17.9,75,0.00,,---,0.00,VWS V12.08,2013-07-02 00:10:00,
2013-07-01 20:15:00,44.7,38.6,29.74,West,266,10.4,15.9,79,0.00,,---,0.00,VWS V12.08,2013-07-02 00:15:00,
2013-07-01 20:20:00,28.5,22.4,30.16,WSW,250,3.4,30.4,78,0.03,,---,0.03,VWS V12.08,2013-07-02 00:20:00,
2013-07-01 20:25:00,74.8,74.8,29.99,ENE,66,0.0,25.0,100,27.88,,---,1.28,VWS V12.08,2013-07-02 00:25:00,
2013-07-01 20:30:00,74.9,74.9,29.99,SE,127,4.8,25.0,100,27.88,,---,1.28,VWS V12.08,2013-07-02 00:30:00,
2013-07-01 20:35:00,74.8,74.8,29.99,SE,136,0.0,25.0,100,27.88,,---,1.28,VWS V12.08,2013-07-02 00:35:00,
2013-07-01 20:40:00,74.8,74.8,29.99,ESE,120,5.8,25.0,100,27.88,,---,1.28,VWS V12.08,2013-07-02 00:40:00,
2013-07-01 20:45:00,74.7,74.7,29.99,SSW,201,0.0,25.0,100,27.88,,---,1.28,VWS V12.08,2013-07-02 00:45:00,
2013-07-01 20:50:00,74.8,74.8,29.99,SE,125,4.5,25.0,100,27.88,,---,1.28,VWS V12.08,2013-07-02 00:50:00,
2013-07-01 20:55:00,74.7,74.7,30.00,ESE,115,0.0,0.0,100,27.88,,---,1.28,VWS V12.08,2013-07-02 00:55:00,
2013-07-01 21:00:00,74.7,74.7,30.00,SE,141,3.4,25.0,100,27.88,,---,1.28,VWS V12.08,2013-07-02 01:00:00,
2013-07-01 21:05:00,74.7,74.7,30.00,SE,128,0.0,25.0,100,27.88,,---,1.28,VWS V12.08,2013-07-02 01:05:00,
2013-07-01 21:10:00,74.4,74.4,30.00,South,184,4.5,25.0,100,27.88,,---,1.28,VWS V12.08,2013-07-02 01:10:00,
2013-07-01 21:15:00,74.7,74.7,30.00,SE,135,5.5,25.0,100,27.88,,---,1.28,VWS V12.08,2013-07-02 01:15:00,
2013-07-01 21:20:00,74.8,74.8,30.00,ESE,111,0.0,25.0,100,27.88,,---,1.28,VWS V12.08,2013-07-02 01:20:00,
2013-07-01 21:25:00,74.9,74.9,30.00,ESE,104,3.4,25.0,100,27.88,,---,1.28,VWS V12.08,2013-07-02 01:25:00,
2013-07-01 21:30:00,75.0,75.0,30.00,South,169,4.6,25.0,100,27.88,,---,1.28,VWS V12.08,2013-07-02 01:30:00,
2013-07-01 21:35:00,75.1,75.1,30.00,ESE,114,4.2,25.0,100,27.88,,---,1.28,VWS V12.08,2013-07-02 01:35:00,
2013-07-01 21:40:00,75.0,75.0,30.00,SSW,200,0.0,25.0,100,27.88,,---,1.28,VWS V12.08,2013-07-02 01:40:00,
2013-07-01 21:45:00,75.2,75.2,30.00,South,174,7.5,25.0,100,27.88,,---,1.28,VWS V12.08,2013-07-02 01:45:00,
2013-07-01 21:50:00,75.2,75.2,30.01,SSE,166,0.0,25.0,100,27.88,,---,1.28,VWS V12.08,2013-07-02 01:50:00,
2013-07-01 21:55:00,74.9,74.9,30.00,SSE,166,8.8,25.0,100,27.88,,---,1.28,VWS V12.08,2013-07-02 01:55:00,
2013-07-01 22:00:00,75.0,75.0,30.01,South,176,6.7,25.0,100,27.88,,---,1.28,VWS V12.08,2013-07-02 02:00:00,
2013-07-01 22:05:00,75.2,75.2,30.01,South,173,6.3,25.0,100,27.88,,---,1.28,VWS V12.08,2013-07-02 02:05:00,
2013-07-01 22:10:00,75.4,75.4,30.01,SSE,166,4.5,25.0,100,27.88,,---,1.28,VWS V12.08,2013-07-02 02:10:00,
2013-07-01 22:15:00,74.8,74.8,30.01,SE,142,0.0,25.0,100,27.88,,---,1.28,VWS V12.08,2013-07-02 02:15:00,
2013-07-01 22:20:00,75.3,75.3,30.02,South,172,7.4,25.0,100,27.88,,---,1.28,VWS V12.08,2013-07-02 02:20:00,
2013-07-01 22:25:00,75.1,75.1,30.02,SW,225,0.0,25.0,100,27.88,,---,1.28,VWS V12.08,2013-07-02 02:25:00,
2013-07-01 22:30:00,46.6,38.0,29.71,West,276,17.2,18.0,72,0.00,,---,0.00,VWS V12.08,2013-07-02 02:30:00,